• în România
  • Lista ţărilor
  • Pe 7 zile
  • Temperatura apei
  • Hartă satelitară
  • Meteo pe hartă
  • Widget-uri
  • user-avatar
    Intrare

    Meteo pe oră la Lenkoran

    Astăzi, 18 Noiembrie, Sâmbătă

    Timp Temperatura Precipitaţii Vânt Presiune Umiditate
    00:00 +5°C° 0,2 mm 2 m/s 638 mmHg 90%
    01:00 +5°C° 0,2 mm 2 m/s 638 mmHg 90%
    02:00 +5°C° 0,2 mm 2 m/s 638 mmHg 91%
    03:00 +6°C° 0,2 mm 1 m/s 637 mmHg 91%
    04:00 +6°C° 0,2 mm 1 m/s 637 mmHg 91%
    05:00 +5°C° 0,2 mm 1 m/s 637 mmHg 91%
    06:00 +5°C° 0,2 mm 1 m/s 637 mmHg 91%
    07:00 +6°C° 0,1 mm 1 m/s 637 mmHg 84%
    08:00 +7°C° 0,1 mm 1 m/s 638 mmHg 76%
    09:00 +8°C° 0,1 mm 1 m/s 638 mmHg 69%
    10:00 +9°C° 0 mm 1 m/s 638 mmHg 62%
    11:00 +10°C° 0 mm 2 m/s 638 mmHg 55%
    12:00 +12°C° 0 mm 2 m/s 638 mmHg 48%
    13:00 +12°C° 0 mm 2 m/s 638 mmHg 50%
    14:00 +10°C° 0 mm 2 m/s 638 mmHg 53%
    15:00 +10°C° 0 mm 2 m/s 637 mmHg 55%
    16:00 +9°C° 0 mm 2 m/s 637 mmHg 62%
    17:00 +8°C° 0 mm 2 m/s 637 mmHg 68%
    18:00 +7°C° 0 mm 2 m/s 637 mmHg 75%
    19:00 +7°C° 0,1 mm 2 m/s 636 mmHg 74%
    20:00 +7°C° 0,1 mm 1 m/s 636 mmHg 74%
    21:00 +7°C° 0,1 mm 1 m/s 636 mmHg 73%
    22:00 +7°C° 0 mm 1 m/s 636 mmHg 68%
    23:00 +5°C° 0 mm 2 m/s 636 mmHg 63%

    Mâine, 19 Noiembrie, Duminică

    Timp Temperatura Precipitaţii Vânt Presiune Umiditate
    00:00 +5°C° 0 mm 2 m/s 636 mmHg 58%
    01:00 +5°C° 0 mm 2 m/s 635 mmHg 54%
    02:00 +5°C° 0 mm 2 m/s 635 mmHg 50%
    03:00 +5°C° 0 mm 2 m/s 635 mmHg 46%
    04:00 +5°C° 0 mm 2 m/s 635 mmHg 45%
    05:00 +5°C° 0 mm 2 m/s 635 mmHg 43%
    06:00 +5°C° 0 mm 2 m/s 635 mmHg 42%
    07:00 +7°C° 0 mm 2 m/s 635 mmHg 38%
    08:00 +8°C° 0 mm 3 m/s 636 mmHg 35%
    09:00 +10°C° 0 mm 3 m/s 636 mmHg 32%
    10:00 +11°C° 0 mm 3 m/s 636 mmHg 30%
    11:00 +13°C° 0 mm 3 m/s 636 mmHg 29%
    12:00 +14°C° 0 mm 3 m/s 636 mmHg 28%
    13:00 +14°C° 0 mm 3 m/s 636 mmHg 30%
    14:00 +13°C° 0 mm 3 m/s 635 mmHg 31%
    15:00 +13°C° 0 mm 3 m/s 635 mmHg 33%
    16:00 +11°C° 0 mm 3 m/s 634 mmHg 35%
    17:00 +10°C° 0 mm 3 m/s 634 mmHg 37%
    18:00 +8°C° 0 mm 2 m/s 634 mmHg 39%
    19:00 +8°C° 0 mm 2 m/s 634 mmHg 37%
    20:00 +8°C° 0 mm 2 m/s 634 mmHg 35%
    21:00 +8°C° 0 mm 2 m/s 634 mmHg 32%
    22:00 +8°C° 0 mm 2 m/s 633 mmHg 31%
    23:00 +8°C° 0 mm 2 m/s 633 mmHg 31%

    Poimâine, 20 Noiembrie, Luni

    Timp Temperatura Precipitaţii Vânt Presiune Umiditate
    00:00 +8°C° 0 mm 3 m/s 633 mmHg 30%
    01:00 +8°C° 0 mm 3 m/s 633 mmHg 31%
    02:00 +8°C° 0 mm 3 m/s 633 mmHg 32%
    03:00 +7°C° 0 mm 3 m/s 633 mmHg 33%
    04:00 +7°C° 0 mm 3 m/s 633 mmHg 35%
    05:00 +7°C° 0 mm 3 m/s 633 mmHg 37%
    06:00 +5°C° 0 mm 3 m/s 633 mmHg 38%
    07:00 +8°C° 0 mm 3 m/s 633 mmHg 38%
    08:00 +9°C° 0 mm 3 m/s 634 mmHg 37%
    09:00 +11°C° 0 mm 3 m/s 634 mmHg 36%
    10:00 +12°C° 0 mm 3 m/s 634 mmHg 35%
    11:00 +13°C° 0 mm 4 m/s 634 mmHg 34%
    12:00 +14°C° 0 mm 4 m/s 634 mmHg 34%
    13:00 +14°C° 0 mm 4 m/s 634 mmHg 35%
    14:00 +13°C° 0 mm 4 m/s 633 mmHg 36%
    15:00 +13°C° 0 mm 4 m/s 633 mmHg 37%
    16:00 +12°C° 0 mm 3 m/s 633 mmHg 39%
    17:00 +11°C° 0 mm 3 m/s 632 mmHg 40%
    18:00 +9°C° 0 mm 3 m/s 632 mmHg 42%
    19:00 +9°C° 0,1 mm 3 m/s 632 mmHg 43%
    20:00 +9°C° 0,1 mm 2 m/s 632 mmHg 43%
    21:00 +9°C° 0,1 mm 2 m/s 632 mmHg 44%
    22:00 +9°C° 0 mm 2 m/s 631 mmHg 45%
    23:00 +8°C° 0 mm 2 m/s 631 mmHg 47%

    21 Noiembrie, Marţi

    Timp Temperatura Precipitaţii Vânt Presiune Umiditate
    00:00 +8°C° 0 mm 2 m/s 631 mmHg 48%
    01:00 +8°C° 0 mm 2 m/s 630 mmHg 49%
    02:00 +8°C° 0 mm 3 m/s 630 mmHg 49%
    03:00 +8°C° 0 mm 3 m/s 630 mmHg 50%
    04:00 +8°C° 0,1 mm 3 m/s 630 mmHg 52%
    05:00 +8°C° 0,1 mm 3 m/s 630 mmHg 55%
    06:00 +7°C° 0,1 mm 4 m/s 630 mmHg 57%
    07:00 +7°C° 0,1 mm 4 m/s 630 mmHg 57%
    08:00 +8°C° 0,1 mm 4 m/s 630 mmHg 57%
    09:00 +10°C° 0,1 mm 4 m/s 630 mmHg 58%
    10:00 +11°C° 0,1 mm 4 m/s 630 mmHg 55%
    11:00 +11°C° 0,1 mm 4 m/s 630 mmHg 53%
    12:00 +12°C° 0,1 mm 5 m/s 630 mmHg 50%
    13:00 +12°C° 0 mm 5 m/s 629 mmHg 50%
    14:00 +12°C° 0 mm 5 m/s 629 mmHg 50%
    15:00 +12°C° 0 mm 5 m/s 628 mmHg 50%
    16:00 +11°C° 0 mm 4 m/s 628 mmHg 52%
    17:00 +10°C° 0 mm 4 m/s 628 mmHg 55%
    18:00 +9°C° 0 mm 3 m/s 628 mmHg 57%
    19:00 +9°C° 0 mm 3 m/s 628 mmHg 58%
    20:00 +9°C° 0 mm 3 m/s 628 mmHg 59%
    21:00 +9°C° 0 mm 3 m/s 628 mmHg 60%
    22:00 +8°C° 0,2 mm 3 m/s 628 mmHg 62%
    23:00 +8°C° 0,2 mm 3 m/s 628 mmHg 63%

    22 Noiembrie, Miercuri

    Timp Temperatura Precipitaţii Vânt Presiune Umiditate
    00:00 +8°C° 0,2 mm 3 m/s 628 mmHg 64%
    01:00 +8°C° 0,2 mm 3 m/s 628 mmHg 66%
    02:00 +6°C° 0,2 mm 4 m/s 628 mmHg 67%
    03:00 +6°C° 0,2 mm 4 m/s 628 mmHg 68%
    04:00 +6°C° 0 mm 4 m/s 628 mmHg 69%
    05:00 +5°C° 0 mm 4 m/s 628 mmHg 69%
    06:00 +5°C° 0 mm 4 m/s 628 mmHg 70%
    07:00 +6°C° 0 mm 4 m/s 628 mmHg 66%
    08:00 +7°C° 0 mm 4 m/s 629 mmHg 62%
    09:00 +8°C° 0 mm 4 m/s 629 mmHg 59%
    10:00 +8°C° 0 mm 5 m/s 629 mmHg 57%
    11:00 +9°C° 0 mm 5 m/s 629 mmHg 55%
    12:00 +9°C° 0 mm 5 m/s 628 mmHg 53%
    13:00 +9°C° 0,1 mm 5 m/s 628 mmHg 56%
    14:00 +9°C° 0,1 mm 5 m/s 628 mmHg 59%
    15:00 +8°C° 0,1 mm 5 m/s 628 mmHg 62%
    16:00 +7°C° 0,1 mm 4 m/s 628 mmHg 67%
    17:00 +6°C° 0,1 mm 4 m/s 628 mmHg 73%
    18:00 +5°C° 0,1 mm 4 m/s 628 mmHg 78%
    19:00 +5°C° 0,2 mm 4 m/s 628 mmHg 79%
    20:00 +5°C° 0,2 mm 4 m/s 629 mmHg 81%
    21:00 +4°C° 0,2 mm 4 m/s 629 mmHg 82%
    22:00 +4°C° 0,2 mm 4 m/s 629 mmHg 83%
    23:00 +3°C° 0,2 mm 4 m/s 629 mmHg 83%

    23 Noiembrie, Joi

    Timp Temperatura Precipitaţii Vânt Presiune Umiditate
    00:00 +3°C° 0,2 mm 4 m/s 629 mmHg 84%
    01:00 +1°C° 0 mm 4 m/s 629 mmHg 83%
    02:00 +1°C° 0 mm 4 m/s 629 mmHg 83%
    03:00 0°C° 0 mm 4 m/s 629 mmHg 83%
    04:00 0°C° 0 mm 4 m/s 629 mmHg 82%
    05:00 0°C° 0 mm 3 m/s 629 mmHg 81%
    06:00 0°C° 0 mm 3 m/s 630 mmHg 81%
    07:00 +1°C° 0 mm 3 m/s 630 mmHg 73%
    08:00 +2°C° 0 mm 3 m/s 631 mmHg 65%
    09:00 +3°C° 0 mm 3 m/s 632 mmHg 57%
    10:00 +3°C° 0 mm 3 m/s 632 mmHg 54%
    11:00 +4°C° 0 mm 3 m/s 632 mmHg 51%
    12:00 +4°C° 0 mm 3 m/s 632 mmHg 48%
    13:00 +4°C° 0,1 mm 3 m/s 632 mmHg 50%
    14:00 +3°C° 0,1 mm 3 m/s 632 mmHg 52%
    15:00 +3°C° 0,1 mm 3 m/s 632 mmHg 54%
    16:00 +3°C° 0,1 mm 2 m/s 632 mmHg 59%
    17:00 +2°C° 0,1 mm 2 m/s 632 mmHg 64%
    18:00 +1°C° 0,1 mm 2 m/s 633 mmHg 70%
    19:00 0°C° 0,1 mm 3 m/s 633 mmHg 72%
    20:00 -1°C° 0,1 mm 3 m/s 633 mmHg 75%
    21:00 -1°C° 0,1 mm 3 m/s 634 mmHg 78%
    22:00 -2°C° 0,1 mm 3 m/s 634 mmHg 78%
    23:00 -2°C° 0,1 mm 3 m/s 634 mmHg 78%
    Arată mai mult